Location: ?????
(38.3715°N, 23.0573°E)
Time: 09:41:10
(UTC+00:00)

NOSS 2-1 (E) - Pass Details

Date: 03 August 2024
Orbit: 385 x 1749 km, 63.3° (Epoch: 07 May)

Event Time Altitude Azimuth Distance (km) Brightness Sun altitude
Rises 18:59:18 0° 206° (SSW) 2,852 6.9 -15.1°
Reaches altitude 10° 19:01:49 10° 204° (SSW) 1,780 5.8 -15.5°
Maximum altitude 19:05:36 66° 122° (ESE) 493 2.8 -16.1°
Drops below altitude 10° 19:08:42 10° 39° (NE) 1,463 5.5 -16.5°
Sets 19:10:35 0° 36° (NE) 2,285 6.5 -16.8°
